RYR278 LPPR-LEPA

Flight info

Callsign RYR278
Flight time 1h 36m
Altitude 31000
Route PESUL9E PESUL DCT RIVRO DCT BARDI/N0445F320 M191 DIPOL/N0446F340 M871 NVS/N0451F350 DCT NANDO DCT MINGU DCT ABOSI DCT MABUX DCT RETBA DCT MOPIR DCT LASPO/N0414F260 M871 GODOX GODOX4M
Aircraft B738/M-SDE2E3FGHIRWXY/LB1

Departure

Time 2026-05-07 16:47
Airport Francisco de Sá Carneiro Airport (LPPR)

Arrival

Time 2026-05-07 18:24
Airport Palma de Mallorca Airport (LEPA)
Time Latitude Longitude Altitude Speed Heading
2026-05-07 16:29 41.23437 -8.67267 234 ft 0 kts 60°
2026-05-07 16:40 41.23435 -8.67271 234 ft 3 kts 60°
2026-05-07 16:40 41.23423 -8.67302 239 ft 4 kts 68°
2026-05-07 16:40 41.23415 -8.67336 237 ft 4 kts 83°
2026-05-07 16:41 41.23418 -8.67367 237 ft 4 kts 129°
2026-05-07 16:41 41.23424 -8.67376 235 ft 1 kts 156°
2026-05-07 16:44 41.23421 -8.67374 236 ft 6 kts 156°
2026-05-07 16:44 41.23352 -8.67374 236 ft 11 kts 215°
2026-05-07 16:44 41.23329 -8.67465 237 ft 11 kts 259°
2026-05-07 16:45 41.23315 -8.67562 236 ft 10 kts 259°
2026-05-07 16:45 41.23312 -8.67583 237 ft 0 kts 258°
2026-05-07 16:46 41.23311 -8.67590 237 ft 3 kts 258°
2026-05-07 16:46 41.23300 -8.67648 239 ft 10 kts 256°
2026-05-07 16:46 41.23335 -8.67738 239 ft 16 kts 347°
2026-05-07 16:46 41.23588 -8.67807 228 ft 71 kts 349°
2026-05-07 16:47 41.24293 -8.67991 213 ft 133 kts 349°
2026-05-07 16:47 41.25341 -8.68265 423 ft 161 kts 347°
2026-05-07 16:47 41.26434 -8.68542 1225 ft 152 kts 346°
2026-05-07 16:47 41.27441 -8.68828 2058 ft 152 kts 346°
2026-05-07 16:48 41.28505 -8.69115 2694 ft 159 kts 345°
2026-05-07 16:48 41.29612 -8.69425 3347 ft 167 kts 347°
2026-05-07 16:48 41.30809 -8.69732 3765 ft 188 kts 348°
2026-05-07 16:48 41.32180 -8.70091 3983 ft 213 kts 348°
2026-05-07 16:49 41.33710 -8.70499 4197 ft 234 kts 348°
2026-05-07 16:49 41.35351 -8.70940 4395 ft 256 kts 348°
2026-05-07 16:49 41.37150 -8.71425 4870 ft 270 kts 348°
2026-05-07 16:49 41.39027 -8.71630 5651 ft 274 kts
2026-05-07 16:50 41.40831 -8.70775 6415 ft 279 kts 33°
2026-05-07 16:50 41.42372 -8.69215 7242 ft 279 kts 45°
2026-05-07 16:50 41.43378 -8.67026 7907 ft 280 kts 75°
2026-05-07 16:50 41.43820 -8.64504 8717 ft 280 kts 81°
2026-05-07 16:51 41.44008 -8.61920 9436 ft 281 kts 99°
2026-05-07 16:51 41.43348 -8.59508 10177 ft 279 kts 124°
2026-05-07 16:51 41.41993 -8.57562 10426 ft 298 kts 144°
2026-05-07 16:51 41.40220 -8.55970 10657 ft 318 kts 148°
2026-05-07 16:52 41.38201 -8.54578 10961 ft 334 kts 163°
2026-05-07 16:52 41.35908 -8.54115 11481 ft 342 kts 176°
2026-05-07 16:52 41.33523 -8.53971 12158 ft 346 kts 178°
2026-05-07 16:52 41.31100 -8.53870 12883 ft 350 kts 179°
2026-05-07 16:53 41.28646 -8.53769 13522 ft 356 kts 179°
2026-05-07 16:53 41.26150 -8.53664 14158 ft 361 kts 179°
2026-05-07 16:53 41.24458 -8.53589 14729 ft 359 kts 179°
2026-05-07 16:53 41.21128 -8.53438 15628 ft 365 kts 179°
2026-05-07 16:54 41.18584 -8.53320 16321 ft 368 kts 179°
2026-05-07 16:54 41.16839 -8.53238 16749 ft 371 kts 179°
2026-05-07 16:54 41.14287 -8.53116 17468 ft 373 kts 179°
2026-05-07 16:54 41.11674 -8.52988 18117 ft 378 kts 179°
2026-05-07 16:55 41.09034 -8.52857 18703 ft 381 kts 179°
2026-05-07 16:55 41.06394 -8.52717 19411 ft 380 kts 179°
2026-05-07 16:55 41.03730 -8.52567 19892 ft 386 kts 179°
2026-05-07 16:55 41.01040 -8.52403 20506 ft 387 kts 179°
2026-05-07 16:56 40.98331 -8.52230 21030 ft 392 kts 179°
2026-05-07 16:56 40.95595 -8.52053 21596 ft 394 kts 179°
2026-05-07 16:56 40.90065 -8.51688 22659 ft 402 kts 179°
2026-05-07 16:57 40.87278 -8.51500 23238 ft 403 kts 179°
2026-05-07 16:57 40.84461 -8.51307 23745 ft 404 kts 179°
2026-05-07 16:57 40.81641 -8.51111 23886 ft 408 kts 179°
2026-05-07 16:57 40.78809 -8.50914 23901 ft 408 kts 179°
2026-05-07 16:58 40.75983 -8.50716 23899 ft 405 kts 179°
2026-05-07 16:58 40.73152 -8.50445 24071 ft 412 kts 172°
2026-05-07 16:58 40.70424 -8.49231 24538 ft 418 kts 153°
2026-05-07 16:58 40.68100 -8.46924 25078 ft 423 kts 136°
2026-05-07 16:59 40.66381 -8.43759 25466 ft 432 kts 118°
2026-05-07 16:59 40.65446 -8.40024 25839 ft 440 kts 101°
2026-05-07 16:59 40.65387 -8.35974 26234 ft 446 kts 83°
2026-05-07 16:59 40.66206 -8.32029 26641 ft 450 kts 69°
2026-05-07 17:00 40.67476 -8.28242 27035 ft 453 kts 66°
2026-05-07 17:00 40.68812 -8.24461 27374 ft 456 kts 66°
2026-05-07 17:00 40.70151 -8.20660 27709 ft 460 kts 66°
2026-05-07 17:00 40.71500 -8.16831 28044 ft 462 kts 66°
2026-05-07 17:01 40.72813 -8.12932 28389 ft 465 kts 69°
2026-05-07 17:01 40.73926 -8.08922 28755 ft 465 kts 74°
2026-05-07 17:01 40.74705 -8.04796 29191 ft 463 kts 82°
2026-05-07 17:01 40.75050 -8.00592 29697 ft 460 kts 90°
2026-05-07 17:02 40.75047 -7.96368 29852 ft 463 kts 95°
2026-05-07 17:02 40.74799 -7.92129 29905 ft 464 kts 98°
2026-05-07 17:02 40.74414 -7.87897 30205 ft 464 kts 99°
2026-05-07 17:02 40.73976 -7.83686 30637 ft 462 kts 100°
2026-05-07 17:03 40.73536 -7.79546 30851 ft 463 kts 100°
2026-05-07 17:03 40.73096 -7.75336 30838 ft 463 kts 100°
2026-05-07 17:03 40.72255 -7.66926 30976 ft 467 kts 99°
2026-05-07 17:04 40.71840 -7.62657 31303 ft 467 kts 99°
2026-05-07 17:04 40.71431 -7.58405 31673 ft 466 kts 99°
2026-05-07 17:04 40.71024 -7.54172 31859 ft 468 kts 99°
2026-05-07 17:04 40.70610 -7.49893 31842 ft 472 kts 99°
2026-05-07 17:05 40.69778 -7.41337 31835 ft 467 kts 99°
2026-05-07 17:05 40.68960 -7.32922 31845 ft 466 kts 99°
2026-05-07 17:06 40.68129 -7.24442 31838 ft 467 kts 99°
2026-05-07 17:06 40.67284 -7.15954 31847 ft 469 kts 99°
2026-05-07 17:07 40.66423 -7.07413 31836 ft 470 kts 99°
2026-05-07 17:07 40.65555 -6.98880 31838 ft 471 kts 99°
2026-05-07 17:08 40.64681 -6.90334 31837 ft 471 kts 99°
2026-05-07 17:08 40.63799 -6.81780 31838 ft 471 kts 99°
2026-05-07 17:09 40.62911 -6.73227 31837 ft 472 kts 99°
2026-05-07 17:09 40.62016 -6.64673 31841 ft 471 kts 99°
2026-05-07 17:10 40.61120 -6.56169 31839 ft 471 kts 99°
2026-05-07 17:10 40.60213 -6.47625 31844 ft 471 kts 99°
2026-05-07 17:11 40.59301 -6.39080 31838 ft 472 kts 99°
2026-05-07 17:11 40.58381 -6.30530 31851 ft 471 kts 99°
2026-05-07 17:12 40.57526 -6.21972 31852 ft 472 kts 98°
2026-05-07 17:12 40.56718 -6.13403 31856 ft 472 kts 98°
2026-05-07 17:13 40.55900 -6.04888 31859 ft 472 kts 98°
2026-05-07 17:13 40.55060 -5.96314 31859 ft 473 kts 98°
2026-05-07 17:14 40.54212 -5.87735 31862 ft 474 kts 98°
2026-05-07 17:14 40.53355 -5.79126 31875 ft 474 kts 98°
2026-05-07 17:15 40.52494 -5.70573 31862 ft 475 kts 98°
2026-05-07 17:15 40.51620 -5.61954 31880 ft 476 kts 98°
2026-05-07 17:16 40.50741 -5.53346 31870 ft 476 kts 98°
2026-05-07 17:16 40.49853 -5.44699 31883 ft 477 kts 98°
2026-05-07 17:17 40.48958 -5.36062 31876 ft 477 kts 98°
2026-05-07 17:17 40.48056 -5.27415 31895 ft 477 kts 98°
2026-05-07 17:18 40.47148 -5.18770 31881 ft 478 kts 98°
2026-05-07 17:18 40.46237 -5.10164 31891 ft 478 kts 99°
2026-05-07 17:19 40.45313 -5.01506 31887 ft 479 kts 99°
2026-05-07 17:19 40.44383 -4.92846 31886 ft 479 kts 99°
2026-05-07 17:20 40.43445 -4.84175 31886 ft 480 kts 99°
2026-05-07 17:20 40.42500 -4.75496 31896 ft 481 kts 99°
2026-05-07 17:21 40.41553 -4.66855 31893 ft 481 kts 99°
2026-05-07 17:21 40.40589 -4.58134 31893 ft 482 kts 99°
2026-05-07 17:22 40.39620 -4.49414 31888 ft 483 kts 99°
2026-05-07 17:22 40.38643 -4.40680 31900 ft 484 kts 99°
2026-05-07 17:23 40.37658 -4.31925 31897 ft 486 kts 99°
2026-05-07 17:23 40.36615 -4.23155 31897 ft 487 kts 102°
2026-05-07 17:24 40.35468 -4.16186 31898 ft 487 kts 104°
2026-05-07 17:24 40.33893 -4.07527 31922 ft 488 kts 104°
2026-05-07 17:25 40.32328 -3.98893 31920 ft 489 kts 104°
2026-05-07 17:25 40.30784 -3.90198 31938 ft 490 kts 104°
2026-05-07 17:26 40.29245 -3.81487 31937 ft 491 kts 104°
2026-05-07 17:26 40.27685 -3.72687 31951 ft 502 kts 101°
2026-05-07 17:27 40.26079 -3.63673 31954 ft 513 kts 102°
2026-05-07 17:27 40.24444 -3.54566 31939 ft 514 kts 102°
2026-05-07 17:28 40.22808 -3.45500 31915 ft 506 kts 102°
2026-05-07 17:28 40.21189 -3.36566 31932 ft 506 kts 102°
2026-05-07 17:29 40.19566 -3.27645 31935 ft 508 kts 102°
2026-05-07 17:29 40.17918 -3.18629 31931 ft 510 kts 102°
2026-05-07 17:30 40.16260 -3.09605 31932 ft 510 kts 102°
2026-05-07 17:30 40.14598 -3.00599 31945 ft 509 kts 102°
2026-05-07 17:31 40.12934 -2.91627 31941 ft 507 kts 103°
2026-05-07 17:31 40.11271 -2.82701 31950 ft 504 kts 103°
2026-05-07 17:32 40.09620 -2.73879 31948 ft 501 kts 103°
2026-05-07 17:32 40.08230 -2.66482 31952 ft 499 kts 103°
2026-05-07 17:33 40.06303 -2.56275 31957 ft 497 kts 103°
2026-05-07 17:33 40.04643 -2.47523 31964 ft 496 kts 103°
2026-05-07 17:34 40.02980 -2.38794 31961 ft 495 kts 103°
2026-05-07 17:34 40.01315 -2.30088 31969 ft 494 kts 104°
2026-05-07 17:35 39.99647 -2.21402 31978 ft 493 kts 104°
2026-05-07 17:35 39.97904 -2.12752 31978 ft 492 kts 107°
2026-05-07 17:36 39.95910 -2.04300 31981 ft 492 kts 108°
2026-05-07 17:36 39.93861 -1.95772 31981 ft 491 kts 108°
2026-05-07 17:37 39.91855 -1.87268 31991 ft 490 kts 108°
2026-05-07 17:37 39.89866 -1.78775 31989 ft 489 kts 108°
2026-05-07 17:38 39.87875 -1.70307 31986 ft 488 kts 108°
2026-05-07 17:38 39.85882 -1.61869 31993 ft 487 kts 108°
2026-05-07 17:39 39.84219 -1.54848 31974 ft 487 kts 108°
2026-05-07 17:39 39.81894 -1.45075 31977 ft 486 kts 109°
2026-05-07 17:40 39.79895 -1.36689 31952 ft 485 kts 109°
2026-05-07 17:40 39.77512 -1.30197 31949 ft 476 kts 132°
2026-05-07 17:41 39.74321 -1.26329 31933 ft 465 kts 152°
2026-05-07 17:41 39.71477 -1.24424 31961 ft 458 kts 161°
2026-05-07 17:41 39.66589 -1.21743 31937 ft 460 kts 162°
2026-05-07 17:42 39.60713 -1.18386 31940 ft 463 kts 161°
2026-05-07 17:42 39.55204 -1.13905 31957 ft 477 kts 140°
2026-05-07 17:43 39.52968 -1.10690 31951 ft 484 kts 129°
2026-05-07 17:43 39.51200 -1.06955 31969 ft 488 kts 121°
2026-05-07 17:43 39.47981 -0.99216 31960 ft 490 kts 121°
2026-05-07 17:44 39.44665 -0.91542 31953 ft 490 kts 122°
2026-05-07 17:44 39.41286 -0.83873 31961 ft 489 kts 122°
2026-05-07 17:45 39.37929 -0.76254 31956 ft 487 kts 122°
2026-05-07 17:45 39.34574 -0.68682 31958 ft 484 kts 123°
2026-05-07 17:46 39.31226 -0.61138 31954 ft 482 kts 123°
2026-05-07 17:46 39.29764 -0.57233 31943 ft 485 kts 112°
2026-05-07 17:46 39.28854 -0.53024 31960 ft 487 kts 102°
2026-05-07 17:47 39.28468 -0.48688 31952 ft 488 kts 91°
2026-05-07 17:47 39.28614 -0.44315 31973 ft 487 kts 86°
2026-05-07 17:47 39.29164 -0.35658 31885 ft 487 kts 85°
2026-05-07 17:48 39.29442 -0.31299 31443 ft 485 kts 86°
2026-05-07 17:48 39.29698 -0.27005 30993 ft 479 kts 87°
2026-05-07 17:48 39.29937 -0.22710 30533 ft 475 kts 88°
2026-05-07 17:48 39.30161 -0.18473 30072 ft 470 kts 88°
2026-05-07 17:49 39.30375 -0.14304 29518 ft 466 kts 89°
2026-05-07 17:49 39.30584 -0.10135 28990 ft 460 kts 89°
2026-05-07 17:49 39.30790 -0.06033 28499 ft 454 kts 89°
2026-05-07 17:49 39.30992 -0.01983 28005 ft 449 kts 89°
2026-05-07 17:50 39.31188 0.01966 27526 ft 444 kts 89°
2026-05-07 17:50 39.31384 0.05922 27043 ft 439 kts 89°
2026-05-07 17:50 39.31577 0.09842 26555 ft 435 kts 89°
2026-05-07 17:50 39.31766 0.13719 26083 ft 430 kts 89°
2026-05-07 17:51 39.31952 0.17550 25614 ft 426 kts 89°
2026-05-07 17:51 39.32136 0.21360 25151 ft 422 kts 89°
2026-05-07 17:51 39.32317 0.25133 24685 ft 418 kts 89°
2026-05-07 17:51 39.32494 0.28860 24228 ft 415 kts 89°
2026-05-07 17:52 39.32669 0.32571 23748 ft 412 kts 89°
2026-05-07 17:52 39.32843 0.36255 23239 ft 409 kts 89°
2026-05-07 17:52 39.33013 0.39904 22719 ft 405 kts 89°
2026-05-07 17:52 39.33181 0.43527 22231 ft 401 kts 89°
2026-05-07 17:53 39.33345 0.47104 21762 ft 398 kts 89°
2026-05-07 17:53 39.33507 0.50653 21299 ft 394 kts 89°
2026-05-07 17:53 39.33664 0.54122 20849 ft 391 kts 89°
2026-05-07 17:53 39.33821 0.57610 20401 ft 387 kts 89°
2026-05-07 17:54 39.33976 0.61084 19953 ft 385 kts 89°
2026-05-07 17:54 39.34128 0.64524 19513 ft 382 kts 89°
2026-05-07 17:54 39.34279 0.67948 19055 ft 381 kts 89°
2026-05-07 17:54 39.34428 0.71361 18597 ft 380 kts 89°
2026-05-07 17:55 39.34575 0.74767 18124 ft 379 kts 89°
2026-05-07 17:55 39.34721 0.78155 17638 ft 377 kts 89°
2026-05-07 17:55 39.34866 0.81521 17179 ft 374 kts 88°
2026-05-07 17:55 39.35007 0.84826 16740 ft 371 kts 88°
2026-05-07 17:56 39.35147 0.88145 16303 ft 368 kts 88°
2026-05-07 17:56 39.35286 0.91449 15867 ft 365 kts 88°
2026-05-07 17:56 39.35423 0.94713 15444 ft 362 kts 88°
2026-05-07 17:56 39.35557 0.97951 15014 ft 360 kts 88°
2026-05-07 17:57 39.35688 1.01120 14588 ft 357 kts 88°
2026-05-07 17:57 39.35777 1.03283 14315 ft 355 kts 88°
2026-05-07 17:57 39.35948 1.07474 13755 ft 351 kts 88°
2026-05-07 17:57 39.36074 1.10615 13276 ft 349 kts 88°
2026-05-07 17:58 39.36200 1.13754 12828 ft 346 kts 88°
2026-05-07 17:58 39.36323 1.16844 12403 ft 342 kts 88°
2026-05-07 17:58 39.36444 1.19907 11983 ft 339 kts 88°
2026-05-07 17:58 39.36563 1.22936 11570 ft 336 kts 87°
2026-05-07 17:59 39.36680 1.25938 11170 ft 333 kts 87°
2026-05-07 17:59 39.36795 1.28906 10770 ft 329 kts 87°
2026-05-07 17:59 39.36909 1.31854 10374 ft 327 kts 86°
2026-05-07 17:59 39.37020 1.34735 10231 ft 316 kts 86°
2026-05-07 18:00 39.37127 1.37528 10082 ft 306 kts 86°
2026-05-07 18:00 39.37228 1.40216 9897 ft 302 kts 86°
2026-05-07 18:00 39.37424 1.42952 9627 ft 300 kts 81°
2026-05-07 18:00 39.37758 1.45589 9359 ft 294 kts 79°
2026-05-07 18:01 39.38121 1.48166 9087 ft 290 kts 78°
2026-05-07 18:01 39.38475 1.50671 8821 ft 285 kts 78°
2026-05-07 18:01 39.38819 1.53144 8562 ft 281 kts 79°
2026-05-07 18:01 39.39162 1.55653 8299 ft 277 kts 79°
2026-05-07 18:02 39.39813 1.60509 7798 ft 271 kts 79°
2026-05-07 18:02 39.40131 1.62905 7542 ft 269 kts 79°
2026-05-07 18:02 39.40445 1.65294 7295 ft 268 kts 79°
2026-05-07 18:03 39.40756 1.67663 7052 ft 267 kts 79°
2026-05-07 18:03 39.41062 1.70011 6803 ft 263 kts 79°
2026-05-07 18:03 39.41362 1.72315 6549 ft 254 kts 79°
2026-05-07 18:03 39.41649 1.74529 6296 ft 246 kts 79°
2026-05-07 18:04 39.41927 1.76673 6050 ft 237 kts 79°
2026-05-07 18:04 39.42191 1.78709 5976 ft 222 kts 79°
2026-05-07 18:04 39.42445 1.80678 5986 ft 222 kts 79°
2026-05-07 18:04 39.42697 1.82623 5978 ft 222 kts 79°
2026-05-07 18:05 39.42947 1.84560 5965 ft 214 kts 79°
2026-05-07 18:05 39.43183 1.86399 5962 ft 200 kts 79°
2026-05-07 18:05 39.43404 1.88116 5979 ft 189 kts 79°
2026-05-07 18:05 39.43620 1.89793 6003 ft 188 kts 79°
2026-05-07 18:06 39.43835 1.91465 5995 ft 189 kts 79°
2026-05-07 18:06 39.44052 1.93152 5982 ft 189 kts 79°
2026-05-07 18:06 39.44267 1.94832 5982 ft 189 kts 79°
2026-05-07 18:06 39.44482 1.96514 5983 ft 190 kts 79°
2026-05-07 18:07 39.44697 1.98196 5986 ft 189 kts 79°
2026-05-07 18:07 39.44911 1.99875 5982 ft 189 kts 79°
2026-05-07 18:07 39.45122 2.01530 5983 ft 188 kts 79°
2026-05-07 18:07 39.45365 2.03193 5981 ft 187 kts 74°
2026-05-07 18:08 39.45460 2.04856 5968 ft 188 kts 104°
2026-05-07 18:08 39.44780 2.06289 6013 ft 191 kts 126°
2026-05-07 18:08 39.44355 2.07851 5981 ft 186 kts 79°
2026-05-07 18:08 39.44985 2.09285 6021 ft 189 kts 47°
2026-05-07 18:09 39.45855 2.10585 5997 ft 193 kts 53°
2026-05-07 18:09 39.46622 2.11987 5984 ft 189 kts 57°
2026-05-07 18:09 39.47294 2.13425 5977 ft 185 kts 60°
2026-05-07 18:09 39.47899 2.14894 5990 ft 185 kts 63°
2026-05-07 18:10 39.48454 2.16386 5990 ft 178 kts 65°
2026-05-07 18:10 39.48929 2.17770 5991 ft 159 kts 66°
2026-05-07 18:10 39.49341 2.19045 5986 ft 152 kts 68°
2026-05-07 18:10 39.49735 2.20321 6001 ft 156 kts 68°
2026-05-07 18:11 39.50127 2.21635 5991 ft 157 kts 69°
2026-05-07 18:11 39.50381 2.22510 5986 ft 156 kts 69°
2026-05-07 18:11 39.50884 2.24277 5991 ft 156 kts 70°
2026-05-07 18:11 39.51147 2.25424 5977 ft 156 kts 85°
2026-05-07 18:12 39.50799 2.26717 5974 ft 162 kts 129°
2026-05-07 18:12 39.49777 2.27387 5712 ft 170 kts 168°
2026-05-07 18:12 39.48604 2.27556 5474 ft 169 kts 172°
2026-05-07 18:12 39.47440 2.27699 5214 ft 166 kts 172°
2026-05-07 18:13 39.46287 2.27835 5051 ft 165 kts 172°
2026-05-07 18:13 39.45132 2.27970 5012 ft 168 kts 172°
2026-05-07 18:13 39.43988 2.28104 4997 ft 165 kts 172°
2026-05-07 18:13 39.42841 2.28240 4991 ft 166 kts 172°
2026-05-07 18:14 39.41675 2.28374 4993 ft 166 kts 172°
2026-05-07 18:14 39.40614 2.28800 4973 ft 159 kts 136°
2026-05-07 18:14 39.40125 2.29987 4987 ft 150 kts 91°
2026-05-07 18:14 39.40239 2.31337 5003 ft 156 kts 82°
2026-05-07 18:15 39.40371 2.32725 5008 ft 155 kts 82°
2026-05-07 18:15 39.40502 2.34089 4969 ft 154 kts 82°
2026-05-07 18:15 39.40635 2.35474 4867 ft 153 kts 82°
2026-05-07 18:15 39.40767 2.36827 4869 ft 154 kts 81°
2026-05-07 18:16 39.40895 2.38190 4743 ft 149 kts 82°
2026-05-07 18:16 39.41015 2.39503 4497 ft 145 kts 82°
2026-05-07 18:16 39.41136 2.40844 4460 ft 151 kts 82°
2026-05-07 18:16 39.41298 2.42171 4501 ft 152 kts 70°
2026-05-07 18:17 39.41803 2.43370 4514 ft 151 kts 61°
2026-05-07 18:17 39.42312 2.44551 4540 ft 151 kts 60°
2026-05-07 18:17 39.42837 2.45729 4485 ft 154 kts 60°
2026-05-07 18:17 39.43388 2.46934 4279 ft 156 kts 60°
2026-05-07 18:18 39.43941 2.48127 4056 ft 154 kts 59°
2026-05-07 18:18 39.44486 2.49292 3856 ft 151 kts 60°
2026-05-07 18:18 39.45019 2.50438 3676 ft 149 kts 59°
2026-05-07 18:18 39.45549 2.51568 3465 ft 149 kts 60°
2026-05-07 18:19 39.46088 2.52717 3305 ft 151 kts 59°
2026-05-07 18:19 39.46630 2.53869 3088 ft 149 kts 61°
2026-05-07 18:19 39.47161 2.55003 2884 ft 144 kts 59°
2026-05-07 18:19 39.47688 2.56125 2713 ft 148 kts 61°
2026-05-07 18:20 39.48221 2.57262 2487 ft 145 kts 59°
2026-05-07 18:20 39.48743 2.58372 2327 ft 146 kts 59°
2026-05-07 18:20 39.49275 2.59506 2093 ft 147 kts 59°
2026-05-07 18:20 39.49800 2.60623 1904 ft 145 kts 59°
2026-05-07 18:21 39.50324 2.61739 1712 ft 142 kts 59°
2026-05-07 18:21 39.50842 2.62841 1531 ft 144 kts 59°
2026-05-07 18:21 39.51355 2.63931 1319 ft 143 kts 59°
2026-05-07 18:21 39.51877 2.65042 1127 ft 148 kts 59°
2026-05-07 18:22 39.52411 2.66175 930 ft 148 kts 59°
2026-05-07 18:22 39.52585 2.66562 841 ft 148 kts 60°
2026-05-07 18:22 39.53479 2.68444 543 ft 148 kts 58°
2026-05-07 18:22 39.54007 2.69572 327 ft 149 kts 57°
2026-05-07 18:23 39.54568 2.70750 220 ft 147 kts 58°
2026-05-07 18:23 39.55102 2.71885 27 ft 140 kts 58°
2026-05-07 18:23 39.55532 2.72795 27 ft 97 kts 59°
2026-05-07 18:23 39.55725 2.73433 25 ft 61 kts 100°
2026-05-07 18:24 39.55718 2.73541 25 ft 0 kts 83°
2026-05-07 18:25 39.55717 2.73548 25 ft 6 kts 99°
2026-05-07 18:26 39.55663 2.73509 27 ft 9 kts 238°
2026-05-07 18:26 39.55605 2.73501 26 ft 14 kts 152°
2026-05-07 18:26 39.55541 2.73560 29 ft 20 kts 149°
2026-05-07 18:26 39.55423 2.73653 33 ft 23 kts 149°
2026-05-07 18:27 39.55235 2.73799 34 ft 23 kts 154°
2026-05-07 18:27 39.55175 2.73691 35 ft 19 kts 251°
2026-05-07 18:27 39.55141 2.73579 35 ft 9 kts 277°
2026-05-07 18:27 39.55141 2.73525 35 ft 9 kts 250°
2026-05-07 18:28 39.55134 2.73508 34 ft 0 kts 239°
2026-05-07 18:30 39.55093 2.73465 35 ft 9 kts 174°
2026-05-07 18:30 39.55047 2.73484 35 ft 3 kts 163°
2026-05-07 18:30 39.55028 2.73490 34 ft 0 kts 165°
2026-05-07 18:31 39.55021 2.73493 35 ft 2 kts 164°
2026-05-07 18:31 39.55020 2.73493 35 ft 0 kts 164°